| time (UTC) | temp C | wind direction | speed KPH | gust KPH | rain 1hr cm | rain 24hr cm | rain mn cm | humidity % | barometer mb |
| 20260504235058 | 14 | 49 | 3.2 | 8.0 | 0.00 | 0.00 | 0.00 | 41 | 1007.6 |
| 20260504234556 | 15 | 18 | 1.6 | 12.9 | 0.00 | 0.00 | 0.00 | 39 | 1007.5 |
| 20260504234053 | 15 | 360 | 3.2 | 12.9 | 0.00 | 0.00 | 0.00 | 38 | 1007.9 |
| 20260504233554 | 15 | 239 | 4.8 | 12.9 | 0.00 | 0.00 | 0.00 | 38 | 1007.6 |
| 20260504233107 | 15 | 344 | 3.2 | 9.7 | 0.00 | 0.00 | 0.00 | 38 | 1007.3 |
| 20260504232551 | 16 | 360 | 3.2 | 12.9 | 0.00 | 0.00 | 0.00 | 38 | 1007.3 |
| 20260504232051 | 16 | 360 | 3.2 | 12.9 | 0.00 | 0.00 | 0.00 | 37 | 1007.2 |
| 20260504231554 | 16 | 307 | 3.2 | 14.5 | 0.00 | 0.00 | 0.00 | 36 | 1007.4 |
| 20260504231051 | 17 | 360 | 3.2 | 14.5 | 0.00 | 0.00 | 0.00 | 34 | 1006.8 |
| 20260504230554 | 17 | 78 | 4.8 | 16.1 | 0.00 | 0.00 | 0.00 | 33 | 1006.7 |
| 20260504225554 | 17 | 360 | 3.2 | 12.9 | 0.00 | 0.00 | 0.00 | 33 | 1006.9 |
| 20260504225050 | 18 | 108 | 3.2 | 12.9 | 0.00 | 0.00 | 0.00 | 33 | 1006.8 |
| 20260504224603 | 18 | 44 | 3.2 | 12.9 | 0.00 | 0.00 | 0.00 | 32 | 1006.7 |
| 20260504224054 | 18 | 360 | 3.2 | 12.9 | 0.00 | 0.00 | 0.00 | 32 | 1006.5 |
| 20260504223551 | 19 | 360 | 4.8 | 16.1 | 0.00 | 0.00 | 0.00 | 30 | 1006.4 |
| 20260504223102 | 20 | 294 | 4.8 | 16.1 | 0.00 | 0.00 | 0.00 | 29 | 1006.4 |
| 20260504222553 | 20 | 360 | 4.8 | 16.1 | 0.00 | 0.00 | 0.00 | 30 | 1006.1 |
| 20260504222050 | 20 | 360 | 3.2 | 17.7 | 0.00 | 0.00 | 0.00 | 30 | 1006.0 |
| 20260504221558 | 21 | 334 | 4.8 | 17.7 | 0.00 | 0.00 | 0.00 | 29 | 1006.0 |
| 20260504221050 | 21 | 360 | 4.8 | 12.9 | 0.00 | 0.00 | 0.00 | 30 | 1006.0 |
| 20260504220551 | 21 | 360 | 3.2 | 19.3 | 0.00 | 0.00 | 0.00 | 28 | 1006.0 |
| 20260504220059 | 21 | 360 | 1.6 | 19.3 | 0.00 | 0.00 | 0.00 | 30 | 1005.9 |
| 20260504215554 | 22 | 360 | 3.2 | 12.9 | 0.00 | 0.00 | 0.00 | 29 | 1005.8 |
| 20260504215053 | 22 | 360 | 3.2 | 9.7 | 0.00 | 0.00 | 0.00 | 30 | 1005.7 |
| 20260504214614 | 22 | 315 | 3.2 | 12.9 | 0.00 | 0.00 | 0.00 | 29 | 1005.7 |
| 20260504214053 | 22 | 36 | 4.8 | 12.9 | 0.00 | 0.00 | 0.00 | 27 | 1005.7 |
| 20260504213553 | 22 | 321 | 4.8 | 12.9 | 0.00 | 0.00 | 0.00 | 27 | 1005.6 |
| 20260504213119 | 22 | 360 | 3.2 | 12.9 | 0.00 | 0.00 | 0.00 | 28 | 1005.3 |
| 20260504212554 | 22 | 360 | 3.2 | 22.5 | 0.00 | 0.00 | 0.00 | 27 | 1005.3 |
| 20260504212056 | 22 | 360 | 4.8 | 22.5 | 0.00 | 0.00 | 0.00 | 27 | 1005.2 |
| 20260504211600 | 22 | 360 | 3.2 | 11.3 | 0.00 | 0.00 | 0.00 | 26 | 1005.2 |
| 20260504211053 | 22 | 38 | 3.2 | 14.5 | 0.00 | 0.00 | 0.00 | 29 | 1004.9 |
| 20260504210556 | 22 | 144 | 3.2 | 14.5 | 0.00 | 0.00 | 0.00 | 28 | 1004.8 |
| 20260504210059 | 22 | 360 | 3.2 | 12.9 | 0.00 | 0.00 | 0.00 | 28 | 1004.8 |
| 20260504205553 | 22 | 360 | 3.2 | 12.9 | 0.00 | 0.00 | 0.00 | 26 | 1004.7 |
| 20260504205056 | 23 | 360 | 3.2 | 14.5 | 0.00 | 0.00 | 0.00 | 27 | 1004.9 |
| 20260504204554 | 23 | 323 | 4.8 | 16.1 | 0.00 | 0.00 | 0.00 | 26 | 1004.6 |
| 20260504204053 | 23 | 270 | 3.2 | 16.1 | 0.00 | 0.00 | 0.00 | 27 | 1004.5 |
| 20260504203554 | 23 | 312 | 3.2 | 11.3 | 0.00 | 0.00 | 0.00 | 29 | 1004.5 |
| 20260504203103 | 22 | 360 | 3.2 | 12.9 | 0.00 | 0.00 | 0.00 | 29 | 1004.6 |
| 20260504202552 | 23 | 360 | 3.2 | 14.5 | 0.00 | 0.00 | 0.00 | 27 | 1004.4 |
| 20260504202054 | 23 | 360 | 3.2 | 14.5 | 0.00 | 0.00 | 0.00 | 29 | 1004.6 |
| 20260504201613 | 23 | 19 | 3.2 | 14.5 | 0.00 | 0.00 | 0.00 | 28 | 1004.4 |
| 20260504201054 | 23 | 360 | 3.2 | 14.5 | 0.00 | 0.00 | 0.00 | 28 | 1004.4 |
| 20260504200553 | 23 | 321 | 3.2 | 9.7 | 0.00 | 0.00 | 0.00 | 27 | 1004.2 |
| 20260504200056 | 23 | 360 | 3.2 | 11.3 | 0.00 | 0.00 | 0.00 | 29 | 1004.3 |
| 20260504195554 | 23 | 283 | 3.2 | 11.3 | 0.00 | 0.00 | 0.00 | 29 | 1004.3 |
| 20260504195054 | 23 | 17 | 3.2 | 9.7 | 0.00 | 0.00 | 0.00 | 28 | 1004.4 |
| 20260504194600 | 23 | 360 | 3.2 | 11.3 | 0.00 | 0.00 | 0.00 | 29 | 1004.4 |
| 20260504194054 | 23 | 81 | 3.2 | 12.9 | 0.00 | 0.00 | 0.00 | 30 | 1004.3 |
| 20260504193553 | 23 | 90 | 1.6 | 12.9 | 0.00 | 0.00 | 0.00 | 28 | 1004.4 |
| 20260504193109 | 23 | 360 | 3.2 | 12.9 | 0.00 | 0.00 | 0.00 | 27 | 1004.4 |
| 20260504192553 | 23 | 360 | 3.2 | 14.5 | 0.00 | 0.00 | 0.00 | 31 | 1004.3 |
| 20260504192059 | 23 | 19 | 1.6 | 16.1 | 0.00 | 0.00 | 0.00 | 28 | 1004.3 |
| 20260504191601 | 23 | 360 | 4.8 | 16.1 | 0.00 | 0.00 | 0.00 | 28 | 1004.3 |
| 20260504191054 | 23 | 360 | 3.2 | 12.9 | 0.00 | 0.00 | 0.00 | 28 | 1004.2 |
| 20260504190553 | 23 | 360 | 3.2 | 11.3 | 0.00 | 0.00 | 0.00 | 27 | 1004.2 |
| 20260504190115 | 23 | 360 | 3.2 | 14.5 | 0.00 | 0.00 | 0.00 | 28 | 1004.2 |
| 20260504185558 | 23 | 360 | 3.2 | 14.5 | 0.00 | 0.00 | 0.00 | 28 | 1004.3 |
| 20260504185053 | 24 | 360 | 3.2 | 12.9 | 0.00 | 0.00 | 0.00 | 27 | 1004.2 |
| 20260504184622 | 24 | 360 | 3.2 | 12.9 | 0.00 | 0.00 | 0.00 | 29 | 1003.9 |
| 20260504184054 | 24 | 19 | 3.2 | 9.7 | 0.00 | 0.00 | 0.00 | 30 | 1004.1 |
| 20260504183554 | 24 | 344 | 3.2 | 9.7 | 0.00 | 0.00 | 0.00 | 31 | 1004.1 |
| 20260504183054 | 24 | 211 | 3.2 | 12.9 | 0.00 | 0.00 | 0.00 | 31 | 1004.0 |
| 20260504182553 | 24 | 15 | 1.6 | 12.9 | 0.00 | 0.00 | 0.00 | 32 | 1003.9 |
| 20260504182053 | 24 | 130 | 3.2 | 12.9 | 0.00 | 0.00 | 0.00 | 31 | 1003.8 |
| 20260504181559 | 24 | 360 | 1.6 | 12.9 | 0.00 | 0.00 | 0.00 | 31 | 1003.7 |
| 20260504181053 | 24 | 360 | 1.6 | 12.9 | 0.00 | 0.00 | 0.00 | 33 | 1003.7 |
| 20260504180553 | 24 | 330 | 3.2 | 9.7 | 0.00 | 0.00 | 0.00 | 33 | 1003.7 |
| 20260504175553 | 23 | 291 | 3.2 | 8.0 | 0.00 | 0.00 | 0.00 | 34 | 1003.6 |
| 20260504175054 | 23 | 340 | 3.2 | 8.0 | 0.00 | 0.00 | 0.00 | 36 | 1003.6 |
| 20260504174558 | 23 | 360 | 3.2 | 8.0 | 0.00 | 0.00 | 0.00 | 36 | 1003.5 |
| 20260504174053 | 23 | 360 | 3.2 | 9.7 | 0.00 | 0.00 | 0.00 | 38 | 1003.6 |
| 20260504173553 | 23 | 360 | 1.6 | 9.7 | 0.00 | 0.00 | 0.00 | 40 | 1003.6 |
| 20260504173109 | 22 | 360 | 3.2 | 9.7 | 0.00 | 0.00 | 0.00 | 41 | 1003.5 |
| 20260504172553 | 22 | 342 | 3.2 | 9.7 | 0.00 | 0.00 | 0.00 | 40 | 1003.5 |
| 20260504172053 | 22 | 80 | 3.2 | 8.0 | 0.00 | 0.00 | 0.00 | 39 | 1003.5 |
| 20260504171608 | 22 | 306 | 3.2 | 8.0 | 0.00 | 0.00 | 0.00 | 41 | 1003.5 |
| 20260504171053 | 22 | 360 | 3.2 | 8.0 | 0.00 | 0.00 | 0.00 | 39 | 1003.5 |
| 20260504170553 | 22 | 360 | 3.2 | 8.0 | 0.00 | 0.00 | 0.00 | 41 | 1003.5 |
| 20260504160104 | 22 | 360 | 3.2 | 11.3 | 0.00 | 0.00 | 0.00 | 36 | 1002.7 |
| 20260504151053 | 21 | 360 | 3.2 | 12.9 | 0.00 | 0.00 | 0.00 | 39 | 1002.6 |
| 20260504150553 | 21 | 0 | 1.6 | 12.9 | 0.00 | 0.00 | 0.00 | 42 | 1002.6 |
| 20260504141055 | 17 | 360 | 1.6 | 11.3 | 0.00 | 0.00 | 0.00 | 48 | 1002.6 |
| 20260504140552 | 17 | 244 | 3.2 | 9.7 | 0.00 | 0.00 | 0.00 | 45 | 1002.6 |
| 20260504140110 | 16 | 360 | 1.6 | 6.4 | 0.00 | 0.00 | 0.00 | 48 | 1002.7 |
| 20260504130554 | 13 | 360 | 1.6 | 8.0 | 0.00 | 0.00 | 0.00 | 58 | 1003.2 |
| 20260504120109 | 11 | 360 | 1.6 | 4.8 | 0.00 | 0.00 | 0.00 | 60 | 1003.0 |
| 20260504110554 | 12 | 0 | 0.0 | 4.8 | 0.00 | 0.00 | 0.00 | 55 | 1003.0 |
| 20260504110107 | 12 | 261 | 0.0 | 4.8 | 0.00 | 0.00 | 0.00 | 55 | 1003.1 |
| 20260504100552 | 13 | 0 | 0.0 | 3.2 | 0.00 | 0.00 | 0.00 | 51 | 1003.3 |
| 20260504081600 | 13 | 0 | 1.6 | 3.2 | 0.00 | 0.00 | 0.00 | 48 | 1004.4 |
| 20260504081049 | 13 | 0 | 0.0 | 3.2 | 0.00 | 0.00 | 0.00 | 48 | 1004.5 |
| 20260504080549 | 13 | 0 | 0.0 | 0.0 | 0.00 | 0.00 | 0.00 | 48 | 1004.4 |
| 20260504060106 | 14 | 0 | 0.0 | 1.6 | 0.00 | 0.00 | 0.00 | 44 | 1006.5 |
| 20260504050550 | 15 | 0 | 0.0 | 1.6 | 0.00 | 0.00 | 0.00 | 41 | 1007.2 |
| 20260504045553 | 15 | 0 | 0.0 | 1.6 | 0.00 | 0.00 | 0.00 | 40 | 1007.2 |
| 20260504045054 | 15 | 0 | 0.0 | 0.0 | 0.00 | 0.00 | 0.00 | 40 | 1007.2 |
| 20260504044554 | 15 | 0 | 0.0 | 0.0 | 0.00 | 0.00 | 0.00 | 40 | 1007.3 |
| 20260504044051 | 15 | 0 | 0.0 | 0.0 | 0.00 | 0.00 | 0.00 | 39 | 1007.3 |
| 20260504043551 | 16 | 0 | 0.0 | 3.2 | 0.00 | 0.00 | 0.00 | 39 | 1007.4 |
| 20260504043053 | 16 | 0 | 0.0 | 3.2 | 0.00 | 0.00 | 0.00 | 39 | 1007.4 |
| 20260504042550 | 16 | 0 | 0.0 | 1.6 | 0.00 | 0.00 | 0.00 | 39 | 1007.5 |
| 20260504042050 | 16 | 0 | 0.0 | 0.0 | 0.00 | 0.00 | 0.00 | 38 | 1007.6 |
| 20260504041556 | 16 | 0 | 0.0 | 0.0 | 0.00 | 0.00 | 0.00 | 38 | 1007.6 |
| 20260504041050 | 16 | 0 | 0.0 | 0.0 | 0.00 | 0.00 | 0.00 | 38 | 1007.7 |
| 20260504040555 | 16 | 0 | 0.0 | 0.0 | 0.00 | 0.00 | 0.00 | 38 | 1007.7 |
| 20260504040058 | 16 | 0 | 0.0 | 1.6 | 0.00 | 0.00 | 0.00 | 38 | 1007.7 |
| 20260504035550 | 16 | 0 | 0.0 | 1.6 | 0.00 | 0.00 | 0.00 | 38 | 1007.7 |
| 20260504035050 | 16 | 0 | 0.0 | 0.0 | 0.00 | 0.00 | 0.00 | 38 | 1007.8 |
| 20260504034552 | 16 | 0 | 0.0 | 0.0 | 0.00 | 0.00 | 0.00 | 38 | 1007.8 |
| 20260504034054 | 16 | 0 | 0.0 | 0.0 | 0.00 | 0.00 | 0.00 | 38 | 1008.0 |
| 20260504033551 | 16 | 0 | 0.0 | 0.0 | 0.00 | 0.00 | 0.00 | 38 | 1008.1 |
| 20260504033101 | 16 | 0 | 0.0 | 0.0 | 0.00 | 0.00 | 0.00 | 38 | 1008.1 |
| 20260504032551 | 16 | 0 | 0.0 | 0.0 | 0.00 | 0.00 | 0.00 | 37 | 1008.1 |
| 20260504032052 | 16 | 0 | 0.0 | 0.0 | 0.00 | 0.00 | 0.00 | 37 | 1008.1 |
| 20260504031601 | 16 | 0 | 0.0 | 0.0 | 0.00 | 0.00 | 0.00 | 38 | 1008.2 |
| 20260504031052 | 16 | 0 | 0.0 | 0.0 | 0.00 | 0.00 | 0.00 | 38 | 1008.2 |
| 20260504030552 | 16 | 0 | 0.0 | 0.0 | 0.00 | 0.00 | 0.00 | 38 | 1008.4 |
| 20260504030052 | 16 | 0 | 0.0 | 0.0 | 0.00 | 0.00 | 0.00 | 38 | 1008.5 |
| 20260504025551 | 16 | 0 | 0.0 | 0.0 | 0.00 | 0.00 | 0.00 | 38 | 1008.5 |
| 20260504025050 | 16 | 0 | 0.0 | 1.6 | 0.00 | 0.00 | 0.00 | 37 | 1008.5 |
| 20260504024601 | 17 | 0 | 0.0 | 1.6 | 0.00 | 0.00 | 0.00 | 38 | 1008.5 |
| 20260504024050 | 17 | 0 | 0.0 | 1.6 | 0.00 | 0.00 | 0.00 | 39 | 1008.4 |
| 20260504023554 | 17 | 0 | 0.0 | 0.0 | 0.00 | 0.00 | 0.00 | 36 | 1008.5 |
| 20260504023054 | 17 | 0 | 0.0 | 0.0 | 0.00 | 0.00 | 0.00 | 34 | 1008.5 |
| 20260504022550 | 18 | 0 | 0.0 | 0.0 | 0.00 | 0.00 | 0.00 | 34 | 1008.5 |
| 20260504022050 | 18 | 0 | 0.0 | 0.0 | 0.00 | 0.00 | 0.00 | 34 | 1008.5 |
| 20260504021555 | 18 | 0 | 0.0 | 0.0 | 0.00 | 0.00 | 0.00 | 34 | 1008.5 |
| 20260504021052 | 18 | 0 | 0.0 | 0.0 | 0.00 | 0.00 | 0.00 | 34 | 1008.6 |
| 20260504020549 | 18 | 0 | 0.0 | 0.0 | 0.00 | 0.00 | 0.00 | 34 | 1008.6 |
| 20260504020052 | 18 | 0 | 0.0 | 0.0 | 0.00 | 0.00 | 0.00 | 34 | 1008.6 |
| 20260504015551 | 18 | 0 | 0.0 | 0.0 | 0.00 | 0.00 | 0.00 | 34 | 1008.7 |
| 20260504015051 | 18 | 0 | 0.0 | 0.0 | 0.00 | 0.00 | 0.00 | 34 | 1008.7 |
| 20260504014554 | 18 | 0 | 0.0 | 0.0 | 0.00 | 0.00 | 0.00 | 34 | 1008.7 |
| 20260504014051 | 18 | 0 | 0.0 | 0.0 | 0.00 | 0.00 | 0.00 | 34 | 1008.7 |
| 20260504013550 | 18 | 0 | 0.0 | 0.0 | 0.00 | 0.00 | 0.00 | 33 | 1008.8 |
| 20260504013104 | 19 | 0 | 0.0 | 0.0 | 0.00 | 0.00 | 0.00 | 35 | 1008.8 |
| 20260504012550 | 19 | 0 | 0.0 | 0.0 | 0.00 | 0.00 | 0.00 | 34 | 1008.8 |
| 20260504012053 | 19 | 0 | 0.0 | 0.0 | 0.00 | 0.00 | 0.00 | 33 | 1008.8 |
| 20260504011552 | 20 | 0 | 0.0 | 0.0 | 0.00 | 0.00 | 0.00 | 34 | 1008.8 |
| 20260504011052 | 20 | 0 | 0.0 | 0.0 | 0.00 | 0.00 | 0.00 | 33 | 1008.8 |
| 20260504010549 | 20 | 0 | 0.0 | 0.0 | 0.00 | 0.00 | 0.00 | 33 | 1008.9 |
| 20260504010055 | 20 | 0 | 0.0 | 0.0 | 0.00 | 0.00 | 0.00 | 32 | 1009.0 |
| 20260504005551 | 20 | 0 | 0.0 | 0.0 | 0.00 | 0.00 | 0.00 | 32 | 1009.0 |
| 20260504005051 | 20 | 0 | 0.0 | 1.6 | 0.00 | 0.00 | 0.00 | 32 | 1009.0 |
| 20260504004603 | 20 | 0 | 0.0 | 1.6 | 0.00 | 0.00 | 0.00 | 32 | 1009.1 |
| 20260504004050 | 21 | 0 | 0.0 | 3.2 | 0.00 | 0.00 | 0.00 | 31 | 1009.1 |
| 20260504003552 | 21 | 0 | 0.0 | 4.8 | 0.00 | 0.00 | 0.00 | 31 | 1009.1 |
| 20260504003054 | 21 | 0 | 0.0 | 4.8 | 0.00 | 0.00 | 0.00 | 32 | 1009.2 |
| 20260504002552 | 21 | 333 | 0.0 | 4.8 | 0.00 | 0.00 | 0.00 | 33 | 1009.1 |
| 20260504002054 | 21 | 0 | 0.0 | 3.2 | 0.00 | 0.00 | 0.00 | 31 | 1009.2 |
| 20260504001601 | 21 | 0 | 0.0 | 3.2 | 0.00 | 0.00 | 0.00 | 29 | 1009.3 |
| 20260504001053 | 21 | 0 | 0.0 | 3.2 | 0.00 | 0.00 | 0.00 | 30 | 1009.3 |
| 20260504000553 | 21 | 230 | 0.0 | 4.8 | 0.00 | 0.00 | 0.00 | 30 | 1009.2 |
| 20260503235550 | 22 | 331 | 1.6 | 4.8 | 0.00 | 0.00 | 0.00 | 30 | 1009.3 |